Location: Newark
(16.3678°N, 77.8722°E)
Time: 04:11:00
(UTC+00:00)

Tiros 1 - Pass Details

Date: 12 December 2019
Orbit: 630 x 664 km, 48.4° (Epoch: 26 January)

Event Time Altitude Azimuth Distance (km) Brightness Sun altitude
Rises 20:54:29 0° 194° (SSW) 2,979 - -58.2°
Reaches altitude 10° 20:57:14 10° 180° (S) 2,066 - -57.6°
Maximum altitude 21:01:00 23° 128° (SE) 1,382 - -56.8°
Drops below altitude 10° 21:04:44 10° 75° (ENE) 2,056 - -55.9°
Sets 21:07:27 0° 61° (ENE) 2,961 - -55.3°
